KG6SIB Weather Reports


Display with metric or nautical units.
time (UTC)temp
F
wind
direction
speed
MPH
gust
MPH
rain 1hr
in
rain 24hr
in
rain mn
in
humidity
%
barometer
mb
20260901134240 55 89 4.0 6.0 0.00 0.00 0.00 35 1015.7
20260901133239 55 38 3.0 6.0 0.00 0.00 0.00 36 1015.6
20260901132739 54 51 3.0 6.0 0.00 0.00 0.00 36 1015.6
20260901132239 55 74 3.0 7.0 0.00 0.00 0.00 36 1015.5
20260901131239 55 74 5.0 8.0 0.00 0.00 0.00 36 1015.7
20260901130739 55 40 4.0 8.0 0.00 0.00 0.00 36 1015.6
20260901125739 54 62 4.0 8.0 0.00 0.00 0.00 36 1016.3
20260901125239 54 65 5.0 8.0 0.00 0.00 0.00 37 1016.3
20260901123238 54 90 3.0 8.0 0.00 0.00 0.00 38 1016.2
20260901122738 54 63 5.0 8.0 0.00 0.00 0.00 38 1016.2
20260901122238 54 65 5.0 8.0 0.00 0.00 0.00 38 1016.2
20260901121727 54 72 3.0 8.0 0.00 0.00 0.00 38 1016.1
20260901120739 54 82 4.0 8.0 0.00 0.00 0.00 38 1016.0
20260901120238 55 83 4.0 8.0 0.00 0.00 0.00 39 1016.2
20260901115738 55 80 5.0 9.0 0.00 0.00 0.00 39 1016.6
20260901115238 55 65 6.0 9.0 0.00 0.00 0.00 40 1016.7
20260901113738 55 75 5.0 8.0 0.00 0.00 0.00 40 1016.6
20260901113238 55 71 4.0 8.0 0.00 0.00 0.00 41 1016.5
20260901112738 55 59 6.0 8.0 0.00 0.00 0.00 41 1016.5
20260901111738 55 55 4.0 7.0 0.00 0.00 0.00 42 1016.5
20260901111238 55 46 4.0 8.0 0.00 0.00 0.00 42 1016.5
20260901110737 55 78 5.0 8.0 0.00 0.00 0.00 43 1016.5
20260901110237 55 82 3.0 8.0 0.00 0.00 0.00 43 1016.5
20260901105737 55 57 3.0 8.0 0.00 0.00 0.00 45 1016.8
20260901105237 55 59 4.0 8.0 0.00 0.00 0.00 45 1016.8
20260901104737 55 58 3.0 6.0 0.00 0.00 0.00 46 1016.8
20260901103737 55 55 4.0 8.0 0.00 0.00 0.00 44 1016.8
20260901103237 55 66 3.0 8.0 0.00 0.00 0.00 45 1016.9
20260901102237 55 71 4.0 7.0 0.00 0.00 0.00 43 1016.9
20260901101737 55 39 4.0 7.0 0.00 0.00 0.00 43 1016.9
20260901101237 55 45 4.0 7.0 0.00 0.00 0.00 43 1017.0
20260901100737 55 51 4.0 7.0 0.00 0.00 0.00 43 1017.0
20260901100237 55 63 3.0 7.0 0.00 0.00 0.00 44 1016.9
20260901095737 55 61 4.0 7.0 0.00 0.00 0.00 44 1017.0
20260901094737 55 64 3.0 7.0 0.00 0.00 0.00 44 1017.0
20260901094236 55 63 4.0 7.0 0.00 0.00 0.00 45 1017.0
20260901093236 55 67 5.0 8.0 0.00 0.00 0.00 45 1017.0
20260901092737 55 69 6.0 8.0 0.00 0.00 0.00 45 1017.0
20260901092236 55 65 3.0 8.0 0.00 0.00 0.00 44 1017.0
20260901091737 55 57 2.0 8.0 0.00 0.00 0.00 44 1017.0
20260901091236 55 64 4.0 8.0 0.00 0.00 0.00 44 1017.0
20260901090737 55 63 5.0 8.0 0.00 0.00 0.00 44 1016.9
20260901085736 55 68 8.0 9.0 0.00 0.00 0.00 44 1017.0
20260901085236 56 76 5.0 8.0 0.00 0.00 0.00 44 1017.3
20260901084237 56 52 5.0 9.0 0.00 0.00 0.00 43 1017.4
20260901083736 56 69 4.0 9.0 0.00 0.00 0.00 44 1017.5
20260901082736 55 80 3.0 9.0 0.00 0.00 0.00 45 1017.2
20260901082235 56 74 2.0 9.0 0.00 0.00 0.00 45 1017.5
20260901081736 56 36 5.0 9.0 0.00 0.00 0.00 45 1017.4
20260901080735 56 63 5.0 8.0 0.00 0.00 0.00 45 1017.4
20260901080236 56 65 5.0 8.0 0.00 0.00 0.00 45 1017.4
20260901075735 56 59 4.0 8.0 0.00 0.00 0.00 46 1017.3
20260901075235 56 30 5.0 7.0 0.00 0.00 0.00 46 1017.3
20260901074735 56 75 5.0 7.0 0.00 0.00 0.00 46 1017.4
20260901073735 57 42 2.0 7.0 0.00 0.00 0.00 47 1017.5
20260901073235 57 51 5.0 7.0 0.00 0.00 0.00 47 1017.4
20260901072236 57 40 5.0 8.0 0.00 0.00 0.00 48 1017.4
20260901071735 57 76 4.0 8.0 0.00 0.00 0.00 48 1017.5
20260901071236 57 71 4.0 8.0 0.00 0.00 0.00 50 1017.5
20260901065735 58 75 4.0 7.0 0.00 0.00 0.00 49 1017.8
20260901065234 58 69 6.0 9.0 0.00 0.00 0.00 50 1017.8
20260901064734 58 67 5.0 9.0 0.00 0.00 0.00 50 1017.8
20260901063734 58 58 6.0 6.0 0.00 0.00 0.00 49 1017.9
20260901063234 58 57 5.0 7.0 0.00 0.00 0.00 49 1017.9
20260901062734 58 51 4.0 7.0 0.00 0.00 0.00 48 1017.8
20260901062223 58 61 5.0 7.0 0.00 0.00 0.00 50 1017.8
20260901061234 58 47 5.0 7.0 0.00 0.00 0.00 46 1017.8
20260901060734 59 17 4.0 7.0 0.00 0.00 0.00 47 1017.9
20260901060234 59 44 3.0 5.0 0.00 0.00 0.00 46 1017.9
20260901055234 58 44 3.0 4.0 0.00 0.00 0.00 47 1017.7
20260901054734 58 48 3.0 4.0 0.00 0.00 0.00 45 1017.6
20260901054234 58 56 0.0 4.0 0.00 0.00 0.00 45 1017.6
20260901053734 59 64 1.0 5.0 0.00 0.00 0.00 47 1017.8
20260901052734 59 80 3.0 5.0 0.00 0.00 0.00 50 1017.8
20260901052234 59 74 1.0 7.0 0.00 0.00 0.00 52 1017.9
20260901051733 59 72 2.0 7.0 0.00 0.00 0.00 52 1017.9
20260901051233 59 67 3.0 5.0 0.00 0.00 0.00 50 1017.8
20260901050234 59 76 2.0 7.0 0.00 0.00 0.00 51 1017.9
20260901045733 59 84 4.0 5.0 0.00 0.00 0.00 50 1017.5
20260901045234 59 71 3.0 5.0 0.00 0.00 0.00 50 1017.4
20260901044733 59 73 3.0 5.0 0.00 0.00 0.00 49 1017.5
20260901044234 59 61 3.0 4.0 0.00 0.00 0.00 51 1017.5
20260901043733 59 67 3.0 4.0 0.00 0.00 0.00 53 1017.6
20260901043233 60 54 3.0 6.0 0.00 0.00 0.00 51 1017.6
20260901042733 60 63 3.0 6.0 0.00 0.00 0.00 56 1017.5
20260901042233 60 55 3.0 5.0 0.00 0.00 0.00 57 1017.5
20260901041733 60 63 3.0 5.0 0.00 0.00 0.00 57 1017.4
20260901041233 60 53 2.0 5.0 0.00 0.00 0.00 58 1017.5
20260901040733 60 67 2.0 5.0 0.00 0.00 0.00 56 1017.4
20260901040233 60 92 3.0 6.0 0.00 0.00 0.00 56 1017.3
20260901034732 61 72 0.0 5.0 0.00 0.00 0.00 56 1017.0
20260901034232 61 44 1.0 5.0 0.00 0.00 0.00 56 1016.9
20260901033232 62 63 4.0 5.0 0.00 0.00 0.00 61 1016.8
20260901032732 62 76 3.0 5.0 0.00 0.00 0.00 62 1016.8
20260901032232 63 85 1.0 4.0 0.00 0.00 0.00 62 1016.8
20260901031732 63 77 1.0 4.0 0.00 0.00 0.00 62 1016.8
20260901030732 64 69 3.0 3.0 0.00 0.00 0.00 61 1016.6
20260901025732 65 57 3.0 3.0 0.00 0.00 0.00 59 1015.6
20260901025232 66 303 0.0 3.0 0.00 0.00 0.00 58 1015.7
20260901024732 67 298 3.0 3.0 0.00 0.00 0.00 58 1015.7
20260901024232 68 236 2.0 3.0 0.00 0.00 0.00 57 1015.9
20260901023231 69 237 0.0 1.0 0.00 0.00 0.00 56 1015.8
20260901022732 70 236 0.0 2.0 0.00 0.00 0.00 55 1015.9
20260901022231 70 237 0.0 3.0 0.00 0.00 0.00 55 1015.8
20260901021732 71 236 0.0 3.0 0.00 0.00 0.00 55 1015.7
20260901021231 71 236 2.0 3.0 0.00 0.00 0.00 54 1015.6
20260901020731 72 237 0.0 4.0 0.00 0.00 0.00 53 1015.7
20260901020231 72 237 1.0 5.0 0.00 0.00 0.00 52 1015.7
20260901015732 72 238 1.0 5.0 0.00 0.00 0.00 51 1014.0
20260901015231 73 229 1.0 8.0 0.00 0.00 0.00 50 1014.2
20260901014731 74 238 5.0 8.0 0.00 0.00 0.00 50 1014.3
20260901014231 74 228 1.0 6.0 0.00 0.00 0.00 49 1014.3
20260901013731 75 228 2.0 5.0 0.00 0.00 0.00 48 1014.5
20260901013230 75 245 2.0 9.0 0.00 0.00 0.00 47 1014.6
20260901012730 76 244 1.0 9.0 0.00 0.00 0.00 46 1014.6
20260901012230 77 233 1.0 8.0 0.00 0.00 0.00 45 1014.8
20260901011731 77 236 2.0 8.0 0.00 0.00 0.00 44 1014.8
20260901011231 78 238 3.0 8.0 0.00 0.00 0.00 43 1014.7
20260901010731 79 215 1.0 7.0 0.00 0.00 0.00 43 1014.9
20260901010249 79 254 2.0 8.0 0.00 0.00 0.00 41 1014.9
20260901005230 79 215 1.0 9.0 0.00 0.00 0.00 40 1014.7
20260901004730 80 246 0.0 11.0 0.00 0.00 0.00 39 1014.8
20260901004230 80 232 8.0 11.0 0.00 0.00 0.00 38 1014.7
20260901003731 80 225 5.0 12.0 0.00 0.00 0.00 37 1014.7
20260901003230 80 229 4.0 12.0 0.00 0.00 0.00 37 1014.8
20260901002230 81 259 2.0 10.0 0.00 0.00 0.00 37 1015.2
20260901001730 82 239 2.0 11.0 0.00 0.00 0.00 37 1015.1
20260901001230 82 261 4.0 11.0 0.00 0.00 0.00 37 1015.2
20260901000729 82 229 5.0 13.0 0.00 0.00 0.00 37 1015.2
20260901000230 83 236 5.0 13.0 0.00 0.00 0.00 37 1015.5
20260831235730 83 261 7.0 11.0 0.00 0.00 0.00 36 1015.5
20260831235230 83 208 5.0 11.0 0.00 0.00 0.00 37 1015.5
20260831234730 83 236 6.0 12.0 0.00 0.00 0.00 37 1015.5
20260831234229 83 213 0.0 12.0 0.00 0.00 0.00 37 1015.4
20260831233729 84 275 7.0 12.0 0.00 0.00 0.00 37 1015.7
20260831233229 85 226 6.0 11.0 0.00 0.00 0.00 36 1015.7
20260831232730 85 229 5.0 11.0 0.00 0.00 0.00 36 1015.6
20260831232229 85 226 1.0 10.0 0.00 0.00 0.00 37 1015.7
20260831231229 84 250 5.0 12.0 0.00 0.00 0.00 38 1015.8
20260831230729 84 272 3.0 13.0 0.00 0.00 0.00 37 1015.7
20260831225729 85 243 2.0 12.0 0.00 0.00 0.00 37 1016.1
20260831224729 86 250 8.0 14.0 0.00 0.00 0.00 36 1016.2
20260831224229 86 253 5.0 15.0 0.00 0.00 0.00 36 1016.1
20260831223229 86 242 5.0 14.0 0.00 0.00 0.00 36 1016.1
20260831222729 86 216 4.0 16.0 0.00 0.00 0.00 36 1016.2
20260831221728 86 227 7.0 13.0 0.00 0.00 0.00 35 1016.1
20260831221228 86 249 4.0 12.0 0.00 0.00 0.00 35 1016.1
20260831215728 87 227 7.0 13.0 0.00 0.00 0.00 34 1016.5
20260831215228 87 206 1.0 16.0 0.00 0.00 0.00 34 1016.4
20260831214228 86 233 8.0 13.0 0.00 0.00 0.00 35 1016.4
20260831213728 86 259 7.0 13.0 0.00 0.00 0.00 35 1016.5
20260831213228 87 233 10.0 13.0 0.00 0.00 0.00 33 1016.5
20260831212228 89 245 3.0 14.0 0.00 0.00 0.00 33 1016.8
20260831211728 88 203 2.0 13.0 0.00 0.00 0.00 33 1016.9
20260831210228 88 219 11.0 13.0 0.00 0.00 0.00 33 1017.1
20260831205728 88 247 8.0 14.0 0.00 0.00 0.00 33 1017.2
20260831205227 87 218 1.0 14.0 0.00 0.00 0.00 34 1016.9
20260831204727 88 246 1.0 13.0 0.00 0.00 0.00 34 1017.1
20260831203728 88 215 2.0 10.0 0.00 0.00 0.00 33 1017.1
20260831203227 87 223 0.0 13.0 0.00 0.00 0.00 33 1016.9
20260831202227 87 236 5.0 15.0 0.00 0.00 0.00 34 1017.1
20260831201727 86 254 10.0 13.0 0.00 0.00 0.00 35 1017.1
20260831201227 86 243 5.0 12.0 0.00 0.00 0.00 35 1017.1
20260831200728 86 275 10.0 12.0 0.00 0.00 0.00 35 1017.2
20260831200257 86 230 1.0 12.0 0.00 0.00 0.00 34 1017.2
20260831195727 87 238 4.0 14.0 0.00 0.00 0.00 33 1017.5
20260831194727 87 194 2.0 10.0 0.00 0.00 0.00 32 1017.3
20260831194227 86 210 2.0 12.0 0.00 0.00 0.00 32 1017.4
20260831193728 86 241 6.0 12.0 0.00 0.00 0.00 32 1017.6
20260831193227 86 283 3.0 10.0 0.00 0.00 0.00 30 1017.4
20260831192727 87 236 6.0 11.0 0.00 0.00 0.00 29 1017.6
20260831192227 87 244 5.0 11.0 0.00 0.00 0.00 29 1017.7
20260831191226 87 225 3.0 14.0 0.00 0.00 0.00 28 1017.6
20260831190727 87 265 3.0 14.0 0.00 0.00 0.00 27 1017.7
20260831190256 87 157 7.0 13.0 0.00 0.00 0.00 28 1017.6
20260831185726 88 279 2.0 10.0 0.00 0.00 0.00 27 1017.9
20260831184256 88 231 2.0 13.0 0.00 0.00 0.00 26 1017.8
20260831183756 87 206 4.0 13.0 0.00 0.00 0.00 25 1017.8
20260831183245 88 258 0.0 11.0 0.00 0.00 0.00 24 1017.7
20260831182756 87 242 3.0 12.0 0.00 0.00 0.00 25 1017.8
20260831182256 87 259 7.0 12.0 0.00 0.00 0.00 25 1017.8
20260831181745 87 223 3.0 11.0 0.00 0.00 0.00 25 1017.8
20260831181255 87 271 4.0 11.0 0.00 0.00 0.00 28 1017.9
20260831180756 87 202 5.0 11.0 0.00 0.00 0.00 28 1017.9
20260831180256 87 210 3.0 12.0 0.00 0.00 0.00 28 1017.9
20260831175756 86 236 2.0 12.0 0.00 0.00 0.00 27 1017.6
20260831174755 86 226 2.0 11.0 0.00 0.00 0.00 29 1017.6
20260831173755 85 225 3.0 11.0 0.00 0.00 0.00 27 1017.5
20260831172756 85 251 2.0 11.0 0.00 0.00 0.00 28 1017.4
20260831172255 86 212 5.0 11.0 0.00 0.00 0.00 26 1017.4
20260831171755 85 232 2.0 11.0 0.00 0.00 0.00 24 1017.3
20260831171255 86 234 3.0 8.0 0.00 0.00 0.00 20 1017.3
20260831170755 85 250 1.0 11.0 0.00 0.00 0.00 20 1017.2
20260831170255 85 185 5.0 11.0 0.00 0.00 0.00 18 1017.2
20260831165744 85 202 1.0 8.0 0.00 0.00 0.00 20 1017.0
20260831165255 84 238 5.0 10.0 0.00 0.00 0.00 18 1017.1
20260831164755 83 251 4.0 10.0 0.00 0.00 0.00 17 1016.8
20260831163754 83 236 3.0 10.0 0.00 0.00 0.00 16 1016.8
20260831162754 83 202 0.0 8.0 0.00 0.00 0.00 18 1016.8
20260831162254 83 257 4.0 9.0 0.00 0.00 0.00 18 1016.8
20260831161754 82 240 3.0 9.0 0.00 0.00 0.00 18 1016.8
20260831161254 82 238 4.0 7.0 0.00 0.00 0.00 16 1016.7
20260831160755 82 230 0.0 5.0 0.00 0.00 0.00 16 1016.7
20260831160254 81 238 1.0 6.0 0.00 0.00 0.00 17 1016.5
20260831155255 80 245 0.0 6.0 0.00 0.00 0.00 16 1016.6
20260831154254 80 242 1.0 7.0 0.00 0.00 0.00 16 1016.5
20260831153754 79 241 0.0 3.0 0.00 0.00 0.00 19 1016.5
20260831151754 74 82 0.0 0.0 0.00 0.00 0.00 22 1015.8
20260831151254 73 73 0.0 0.0 0.00 0.00 0.00 25 1015.8
20260831150754 72 68 0.0 0.0 0.00 0.00 0.00 25 1015.6
20260831150254 70 68 0.0 1.0 0.00 0.00 0.00 26 1015.3
20260831145754 68 68 0.0 7.0 0.00 0.00 0.00 27 1015.4
20260831145254 67 67 0.0 7.0 0.00 0.00 0.00 28 1015.5
20260831144753 66 74 4.0 7.0 0.00 0.00 0.00 28 1015.2
20260831144253 64 65 3.0 6.0 0.00 0.00 0.00 30 1014.9
20260831143753 63 70 2.0 6.0 0.00 0.00 0.00 31 1014.9
20260831143243 62 80 2.0 8.0 0.00 0.00 0.00 31 1014.7
20260831142753 61 57 3.0 8.0 0.00 0.00 0.00 32 1014.7
20260831141753 59 34 3.0 7.0 0.00 0.00 0.00 33 1014.4
20260831141253 58 98 3.0 7.0 0.00 0.00 0.00 34 1014.0
20260831140753 57 60 4.0 8.0 0.00 0.00 0.00 34 1014.0
20260831140253 57 45 5.0 8.0 0.00 0.00 0.00 34 1014.0
20260831135753 57 71 5.0 8.0 0.00 0.00 0.00 34 1014.7
20260831135254 57 51 4.0 8.0 0.00 0.00 0.00 33 1014.7
20260831134753 56 57 5.0 7.0 0.00 0.00 0.00 33 1014.4